• In Uzbekistan
  • List of Countries
  • For 7 days
  • Water Temperature
  • Satellite Maps
  • Weather Map
  • Weather Widgets
  • user-avatar
    Login

    Hourly Weather Wlora

    Today, 30 May, Tuesday

    Time Temperature Precipitation Wind Pressure Humidity
    00:00 +18°C° 0 mm 1 mps 762 mmHg 79%
    01:00 +18°C° 0 mm 1 mps 762 mmHg 79%
    02:00 +18°C° 0 mm 1 mps 762 mmHg 79%
    03:00 +18°C° 0 mm 1 mps 762 mmHg 79%
    04:00 +18°C° 0 mm 1 mps 762 mmHg 80%
    05:00 +20°C° 0 mm 1 mps 762 mmHg 74%
    06:00 +21°C° 0 mm 1 mps 762 mmHg 68%
    07:00 +23°C° 0 mm 1 mps 762 mmHg 62%
    08:00 +24°C° 0.1 mm 1 mps 762 mmHg 58%
    09:00 +25°C° 0.1 mm 1 mps 763 mmHg 55%
    10:00 +26°C° 0.1 mm 2 mps 763 mmHg 51%
    11:00 +26°C° 0.1 mm 2 mps 763 mmHg 50%
    12:00 +27°C° 0.1 mm 2 mps 763 mmHg 49%
    13:00 +27°C° 0.1 mm 2 mps 763 mmHg 48%
    14:00 +26°C° 0.1 mm 3 mps 763 mmHg 49%
    15:00 +26°C° 0.1 mm 3 mps 763 mmHg 50%
    16:00 +26°C° 0.1 mm 3 mps 762 mmHg 50%
    17:00 +24°C° 0 mm 3 mps 763 mmHg 57%
    18:00 +21°C° 0 mm 2 mps 763 mmHg 64%
    19:00 +19°C° 0 mm 2 mps 763 mmHg 71%
    20:00 +18°C° 0 mm 2 mps 763 mmHg 72%
    21:00 +18°C° 0 mm 2 mps 764 mmHg 73%
    22:00 +17°C° 0 mm 2 mps 764 mmHg 74%
    23:00 +17°C° 0 mm 2 mps 764 mmHg 74%

    Tomorrow, 31 May, Wednesday

    Time Temperature Precipitation Wind Pressure Humidity
    00:00 +17°C° 0 mm 2 mps 764 mmHg 74%
    01:00 +17°C° 0 mm 2 mps 764 mmHg 74%
    02:00 +17°C° 0 mm 2 mps 764 mmHg 74%
    03:00 +16°C° 0 mm 2 mps 764 mmHg 75%
    04:00 +16°C° 0 mm 2 mps 764 mmHg 75%
    05:00 +18°C° 0 mm 2 mps 764 mmHg 68%
    06:00 +21°C° 0 mm 2 mps 764 mmHg 60%
    07:00 +24°C° 0 mm 2 mps 764 mmHg 53%
    08:00 +25°C° 0 mm 2 mps 764 mmHg 50%
    09:00 +26°C° 0 mm 2 mps 764 mmHg 47%
    10:00 +27°C° 0 mm 3 mps 765 mmHg 44%
    11:00 +27°C° 0 mm 3 mps 764 mmHg 44%
    12:00 +28°C° 0 mm 3 mps 764 mmHg 44%
    13:00 +28°C° 0 mm 4 mps 764 mmHg 44%
    14:00 +28°C° 0 mm 3 mps 764 mmHg 46%
    15:00 +27°C° 0 mm 3 mps 764 mmHg 48%
    16:00 +27°C° 0 mm 3 mps 763 mmHg 49%
    17:00 +25°C° 0 mm 3 mps 763 mmHg 59%
    18:00 +23°C° 0 mm 2 mps 764 mmHg 68%
    19:00 +20°C° 0 mm 2 mps 764 mmHg 77%
    20:00 +19°C° 0 mm 2 mps 764 mmHg 78%
    21:00 +20°C° 0 mm 1 mps 764 mmHg 79%
    22:00 +19°C° 0 mm 1 mps 764 mmHg 79%
    23:00 +19°C° 0 mm 1 mps 764 mmHg 80%

    Day after tomorrow, 1 June, Thursday

    Time Temperature Precipitation Wind Pressure Humidity
    00:00 +18°C° 0 mm 1 mps 764 mmHg 81%
    01:00 +18°C° 0 mm 1 mps 764 mmHg 82%
    02:00 +18°C° 0 mm 1 mps 764 mmHg 80%
    03:00 +18°C° 0 mm 1 mps 764 mmHg 78%
    04:00 +17°C° 0 mm 2 mps 764 mmHg 77%
    05:00 +19°C° 0 mm 2 mps 764 mmHg 68%
    06:00 +21°C° 0 mm 2 mps 764 mmHg 59%
    07:00 +25°C° 0 mm 2 mps 764 mmHg 50%
    08:00 +26°C° 0 mm 2 mps 764 mmHg 46%
    09:00 +27°C° 0 mm 2 mps 764 mmHg 42%
    10:00 +28°C° 0 mm 3 mps 764 mmHg 38%
    11:00 +29°C° 0 mm 3 mps 764 mmHg 39%
    12:00 +29°C° 0 mm 4 mps 764 mmHg 40%
    13:00 +30°C° 0 mm 4 mps 763 mmHg 40%
    14:00 +29°C° 0 mm 4 mps 763 mmHg 42%
    15:00 +29°C° 0 mm 4 mps 763 mmHg 44%
    16:00 +28°C° 0 mm 4 mps 763 mmHg 47%
    17:00 +26°C° 0 mm 3 mps 763 mmHg 54%
    18:00 +24°C° 0 mm 3 mps 763 mmHg 61%
    19:00 +21°C° 0 mm 3 mps 763 mmHg 68%
    20:00 +20°C° 0 mm 3 mps 763 mmHg 71%
    21:00 +20°C° 0 mm 2 mps 763 mmHg 74%
    22:00 +19°C° 0 mm 2 mps 764 mmHg 77%
    23:00 +19°C° 0 mm 2 mps 764 mmHg 76%

    2 June, Friday

    Time Temperature Precipitation Wind Pressure Humidity
    00:00 +18°C° 0 mm 2 mps 763 mmHg 76%
    01:00 +18°C° 0 mm 2 mps 763 mmHg 76%
    02:00 +18°C° 0 mm 3 mps 763 mmHg 76%
    03:00 +18°C° 0 mm 3 mps 763 mmHg 76%
    04:00 +17°C° 0 mm 3 mps 763 mmHg 76%
    05:00 +20°C° 0 mm 3 mps 763 mmHg 68%
    06:00 +22°C° 0 mm 3 mps 763 mmHg 60%
    07:00 +25°C° 0 mm 3 mps 763 mmHg 53%
    08:00 +27°C° 0 mm 3 mps 763 mmHg 49%
    09:00 +28°C° 0 mm 3 mps 763 mmHg 46%
    10:00 +29°C° 0 mm 4 mps 763 mmHg 42%
    11:00 +30°C° 0 mm 4 mps 763 mmHg 43%
    12:00 +30°C° 0 mm 5 mps 763 mmHg 44%
    13:00 +30°C° 0 mm 5 mps 762 mmHg 45%
    14:00 +30°C° 0 mm 5 mps 762 mmHg 47%
    15:00 +29°C° 0 mm 5 mps 762 mmHg 49%
    16:00 +29°C° 0 mm 4 mps 762 mmHg 51%
    17:00 +27°C° 0 mm 4 mps 762 mmHg 58%
    18:00 +25°C° 0 mm 3 mps 762 mmHg 66%
    19:00 +22°C° 0 mm 3 mps 762 mmHg 73%
    20:00 +21°C° 0 mm 3 mps 762 mmHg 76%
    21:00 +21°C° 0 mm 2 mps 762 mmHg 78%
    22:00 +20°C° 0 mm 2 mps 762 mmHg 81%
    23:00 +20°C° 0 mm 2 mps 762 mmHg 81%

    3 June, Saturday

    Time Temperature Precipitation Wind Pressure Humidity
    00:00 +19°C° 0 mm 2 mps 762 mmHg 81%
    01:00 +19°C° 0 mm 2 mps 761 mmHg 81%
    02:00 +19°C° 0 mm 2 mps 761 mmHg 82%
    03:00 +19°C° 0 mm 2 mps 761 mmHg 83%
    04:00 +18°C° 0 mm 2 mps 761 mmHg 84%
    05:00 +21°C° 0 mm 2 mps 761 mmHg 76%
    06:00 +24°C° 0 mm 2 mps 762 mmHg 68%
    07:00 +26°C° 0 mm 2 mps 762 mmHg 60%
    08:00 +27°C° 0 mm 3 mps 762 mmHg 56%
    09:00 +28°C° 0 mm 3 mps 762 mmHg 51%
    10:00 +30°C° 0 mm 3 mps 762 mmHg 47%
    11:00 +30°C° 0 mm 3 mps 761 mmHg 47%
    12:00 +30°C° 0 mm 4 mps 761 mmHg 46%
    13:00 +30°C° 0 mm 4 mps 761 mmHg 46%
    14:00 +30°C° 0 mm 4 mps 761 mmHg 47%
    15:00 +29°C° 0 mm 4 mps 761 mmHg 49%
    16:00 +29°C° 0 mm 4 mps 761 mmHg 50%
    17:00 +27°C° 0 mm 4 mps 761 mmHg 58%
    18:00 +25°C° 0 mm 4 mps 761 mmHg 65%
    19:00 +22°C° 0 mm 3 mps 761 mmHg 72%
    20:00 +22°C° 0 mm 3 mps 761 mmHg 75%
    21:00 +21°C° 0 mm 3 mps 761 mmHg 78%
    22:00 +20°C° 0 mm 2 mps 761 mmHg 81%
    23:00 +20°C° 0 mm 2 mps 761 mmHg 82%

    4 June, Sunday

    Time Temperature Precipitation Wind Pressure Humidity
    00:00 +19°C° 0 mm 3 mps 761 mmHg 83%
    01:00 +19°C° 0 mm 3 mps 761 mmHg 84%
    02:00 +19°C° 0 mm 3 mps 761 mmHg 84%
    03:00 +19°C° 0 mm 3 mps 761 mmHg 84%
    04:00 +19°C° 0 mm 3 mps 761 mmHg 85%
    05:00 +21°C° 0 mm 3 mps 761 mmHg 77%
    06:00 +24°C° 0 mm 3 mps 761 mmHg 69%
    07:00 +26°C° 0 mm 3 mps 761 mmHg 60%
    08:00 +27°C° 0 mm 3 mps 761 mmHg 56%
    09:00 +28°C° 0 mm 4 mps 761 mmHg 51%
    10:00 +30°C° 0 mm 4 mps 761 mmHg 46%
    11:00 +30°C° 0 mm 4 mps 761 mmHg 46%
    12:00 +30°C° 0 mm 5 mps 761 mmHg 46%
    13:00 +30°C° 0 mm 5 mps 761 mmHg 46%
    14:00 +30°C° 0 mm 5 mps 761 mmHg 48%
    15:00 +29°C° 0 mm 5 mps 760 mmHg 49%
    16:00 +29°C° 0 mm 4 mps 760 mmHg 51%
    17:00 +27°C° 0 mm 4 mps 760 mmHg 57%
    18:00 +25°C° 0 mm 4 mps 760 mmHg 64%
    19:00 +24°C° 0 mm 3 mps 760 mmHg 71%
    20:00 +22°C° 0 mm 3 mps 761 mmHg 73%
    21:00 +21°C° 0 mm 2 mps 761 mmHg 76%
    22:00 +21°C° 0 mm 2 mps 761 mmHg 78%
    23:00 +20°C° 0 mm 2 mps 761 mmHg 79%
    Show more